HST 1 20580U 90037B 25181.06550892 .00004120 00000-0 15020-3 0 9994 2 20580 28.4689 317.6170 0001824 230.7154 129.3279 15.25433042734912 ISS (ZARYA) 1 25544U 98067A 25181.15607184 .00004733 00000-0 89907-4 0 9993 2 25544 51.6344 242.7996 0002295 311.2029 48.8762 15.50302098517179 CXO 1 25867U 99040B 25182.66035926 .00000377 00000-0 00000-0 0 9992 2 25867 49.8474 128.9801 8399593 309.7738 0.2684 0.37807753 15992